This is the latest recevied weather packets stored in our database for station/object WX7FGZ-6. If no packets are shown the sender has not sent any weather packets the latest 10 day(s).
| Time | Temp. | Humidity | Pressure | Rain* | Wind** | Luminosity | Snow |
|---|---|---|---|---|---|---|---|
| 1778006841 | 1.11° C | 67% | 1013 hPa | 0 mm | - | - | - |
| 1778006670 | 1.11° C | 67% | 1013 hPa | 0 mm | - | - | - |
| 1778006537 | 0° C | 72% | 1013.3 hPa | 0 mm | - | - | - |
| 1778006370 | 0° C | 72% | 1013.3 hPa | 0 mm | - | - | - |
| 1778006070 | 0° C | 72% | 1013.1 hPa | 0 mm | - | - | - |
| 1778005770 | 0° C | 69% | 1013 hPa | 0 mm | - | - | - |
| 1778005470 | 0.56° C | 68% | 1013 hPa | 0 mm | - | - | - |
| 1778005170 | 0° C | 74% | 1013.1 hPa | 0 mm | - | - | - |
| 1778005018 | -0.56° C | 71% | 1013.4 hPa | 0 mm | - | - | - |
| 1778004870 | -0.56° C | 71% | 1013.4 hPa | 0 mm | - | - | - |
| 1778004552 | 0° C | 68% | 1013.4 hPa | 0 mm | - | - | - |
| 1778004251 | 0.56° C | 69% | 1013.3 hPa | 0 mm | - | - | - |
| 1778003952 | 0° C | 73% | 1013.1 hPa | 0 mm | - | - | - |
| 1778003651 | -0.56° C | 75% | 1013.1 hPa | 0 mm | - | - | - |
| 1778003558 | -1.11° C | 72% | 1013 hPa | 0 mm | - | - | - |
| 1778003351 | -1.11° C | 72% | 1013 hPa | 0 mm | - | - | - |
| 1778003051 | -1.11° C | 72% | 1012.9 hPa | 0 mm | - | - | - |
| 1778002751 | -1.11° C | 77% | 1012.8 hPa | 0 mm | - | - | - |
| 1778002451 | -1.67° C | 78% | 1013 hPa | 0 mm | - | - | - |
| 1778001860 | -2.22° C | 79% | 1012.8 hPa | 0 mm | - | - | - |
| 1778001560 | -2.22° C | 80% | 1012.8 hPa | 0 mm | - | - | - |
| 1778001451 | -1.67° C | 81% | 1013.3 hPa | 0 mm | - | - | - |
| 1778001260 | -1.67° C | 81% | 1013.3 hPa | 0 mm | - | - | - |
| 1778001177 | -2.22° C | 81% | 1013.3 hPa | 0 mm | - | - | - |
| 1778000960 | -2.22° C | 81% | 1013.3 hPa | 0 mm | - | - | - |
* Rain latest hour (hover to see other rain measurements)
** Current wind speed in m/s (hover to see current wind gust speed)